Regional Weather Roundup
Issued by NWS

Home | Current Version | Previous Version | Text Only | Print | Product List | Glossary On
Versions: 1 2 3 4 5 6 7 8 9 10 11 12 13 14 15 16 17 18 19 20 21 22 23 24 25 26 27 28 29 30 31 32 33 34 35 36 37 38 39 40 41 42 43 44 45 46 47 48 49 50
000
ASUS43 KLMK 252102
RWRKY
KENTUCKY REGIONAL WEATHER ROUNDUP
NATIONAL WEATHER SERVICE LOUISVILLE KY
400 PM EST SUN JAN 25 2015

NOTE "FAIR" INDICATES FEW OR NO CLOUDS BELOW 12,000 FEET
WITH NO SIGNIFICANT WEATHER AND/OR OBSTRUCTIONS TO VISIBILITY.

KYZ001>023-026-027-061>063-070>075-252200-
WESTERN AND SOUTH CENTRAL KENTUCKY

CITY           SKY/WX    TMP DP  RH WIND       PRES   REMARKS
PADUCAH        RAIN      43  40  89 SW9       29.61R FOG
HENDERSON      CLOUDY    43  37  81 S13       29.59S
OWENSBORO      LGT RAIN  43  41  93 S8        29.61S FOG
HOPKINSVILLE   DRIZZLE   45  43  95 SW13      29.62R
BOWLING GREEN  LGT RAIN  49  39  68 SW8       29.61F
GLASGOW        NOT AVBL
$$

KYZ024-025-028>034-038-045-046-053-252200-
NORTH CENTRAL KENTUCKY

CITY           SKY/WX    TMP DP  RH WIND       PRES   REMARKS
LOUISVILLE/SDF LGT RAIN  44  38  79 SE3       29.62R
LOUISVILLE/LOU LGT RAIN  43  38  82 CALM      29.63S
FORT KNOX      CLOUDY    44  38  79 E3        29.59F
$$

KYZ035>037-039>044-047>052-055>060-089>105-252200-
NORTHEAST KENTUCKY

CITY           SKY/WX    TMP DP  RH WIND       PRES   REMARKS
LEXINGTON      CLOUDY    43  34  70 SE6       29.63F
COVINGTON      LGT RAIN  40  36  86 E8        29.64F FOG     WCI  34
FRANKFORT      CLOUDY    41  35  79 E5        29.62F
$$

KYZ054-064>069-076>088-106>120-252200-
SOUTHEAST KENTUCKY

CITY           SKY/WX    TMP DP  RH WIND       PRES   REMARKS
JACKSON        CLOUDY    49  32  52 S3        29.66F
LONDON         CLOUDY    51  29  42 S12       29.67R
SOMERSET       NOT AVBL
MIDDLESBORO    NOT AVBL
MONTICELLO     CLOUDY    52  34  50 S10G20    29.66F
$$




USA.gov is the U.S. government's official web portal to all federal, state and local government web resources and services.